Weather in Ruchyi

Russia / Tver Oblast     56°35′32″N   36°58′14″E
temp.,
°C
wind,
m/s
gust,
m/s
humid.,
%
clouds,
%
prec.,
mm/h
press.,
hPa
HPBL,
m
29 november, mon
mon2900:000s2594100 0.0 1009123
03:000se1298100 0.5 100986
06:00+1e3893100 0.7 1006335
09:00+2se31194100 1.6 1005440
12:00+4ese4109169 0.3 1003394
15:00+4se31094100 0.4 1001424
18:00+4e41198100 0.3 996370
21:00+4ese51297100 0.3 992581
30 november, tue
tue3000:00+4e51297100 0.0 987559
03:00+5e61496100 1.9 979623
06:00+5e51395100 2.7 971684
09:00+7ssw81388100 4.6 968915
12:00+3ssw91779100 0.3 9711204
15:000ssw81578100 0.4 9711264
18:00−2sw91689100 1.2 9731030
21:00−3wsw91689100 2.1 976984
1 december, wed
wed100:00−4wsw81588100 0.8 9801055
03:00−4wsw71388100 1.4 9831009
06:00−4wsw61291100 1.0 9861134
09:00−4wsw61186100 1.6 987991
12:00−4wsw5983100 0.3 989973
15:00−4w5878100 0.4 990938
18:00−5w5991100 0.3 992786
21:00−6w51083100 0.8 993745
2 december, thu
thu200:00−8w5118785 0.0 996586
03:00−8wsw499099 0.0 998420
06:00−8wsw389066 0.0 999323
09:00−8sw2689100 0.0 1000233
12:00−5s3576100 0.0 999291
15:00−4sse41079100 0.1 998636
18:00−4sse51293100 0.7 996628
21:00−2s41195100 1.7 994530
3 december, fri
fri300:000ssw41298100 0.3 994608
03:00+2sw51396100 0.6 995837
06:00+2sw61282100 0.1 995998
09:00+1sw6127464 0.1 9971082
12:00+1sw61178100 0.0 9991272
15:000sw51180100 0.1 1000747
18:00−1ssw3985100 0.0 1001395
21:00−1ssw3888100 0.0 1000349